FW3754 Weather Reports


Display with metric or nautical units.
time (UTC)temp
F
wind
direction
speed
MPH
gust
MPH
rain 1hr
in
rain 24hr
in
rain mn
in
humidity
%
barometer
mb
20260904044503 80 294 0.0 0.0 0.00 0.00 0.00 89 1014.0
20260904043003 81 294 0.0 0.0 0.00 0.00 0.00 89 1014.1
20260904041503 81 294 0.0 0.0 0.00 0.00 0.00 88 1014.1
20260904040100 81 294 0.0 0.0 0.00 0.00 0.00 88 1014.2
20260904034558 81 294 0.0 0.0 0.00 0.00 0.00 87 1014.3
20260904033059 81 294 0.0 0.0 0.00 0.00 0.06 87 1014.4
20260904031600 82 292 0.0 0.0 0.00 0.00 0.06 86 1014.4
20260904030058 82 292 0.0 0.0 0.00 0.00 0.06 84 1014.3
20260904024556 82 32 0.0 0.0 0.00 0.00 0.06 84 1014.4
20260904023057 82 305 0.0 0.0 0.00 0.00 0.06 83 1014.3
20260904021555 82 299 0.0 0.0 0.00 0.00 0.06 83 1014.2
20260904020055 83 326 0.0 0.0 0.00 0.00 0.06 83 1014.3
20260904014605 83 286 1.0 0.0 0.00 0.00 0.06 83 1014.1
20260904013054 82 297 1.0 0.0 0.00 0.00 0.06 84 1014.0
20260904011553 82 279 1.0 0.0 0.00 0.00 0.06 83 1013.8
20260904010107 82 288 1.0 0.0 0.00 0.00 0.06 84 1013.7
20260904004554 82 288 1.0 0.0 0.00 0.00 0.06 86 1013.6
20260904003052 82 270 1.0 0.0 0.00 0.00 0.06 85 1013.7
20260904001552 82 309 0.0 0.0 0.00 0.00 0.06 84 1013.6
20260904000056 83 284 0.0 0.0 0.00 0.00 0.06 84 1013.4
20260903234550 83 284 0.0 0.0 0.00 0.00 0.06 83 1013.4
20260903233050 83 284 0.0 0.0 0.00 0.00 0.06 83 1013.3
20260903231550 83 23 1.0 0.0 0.00 0.00 0.06 83 1013.4
20260903230049 84 39 1.0 0.0 0.00 0.00 0.06 81 1013.4
20260903224550 84 34 1.0 0.0 0.00 0.00 0.06 82 1013.4
20260903223051 85 333 4.0 0.0 0.00 0.00 0.06 80 1013.3
20260903221549 85 326 4.0 0.0 0.00 0.00 0.06 78 1013.0
20260903220052 86 336 3.0 0.0 0.00 0.00 0.06 74 1012.7
20260903214550 88 314 1.0 0.0 0.00 0.00 0.06 72 1012.5
20260903213050 88 325 1.0 0.0 0.00 0.00 0.06 72 1012.6
20260903211547 88 344 1.0 0.0 0.00 0.00 0.06 72 1012.7
20260903210104 86 279 1.0 0.0 0.00 0.00 0.06 79 1012.4
20260903204604 84 304 2.0 0.0 0.00 0.00 0.06 88 1012.4
20260903203045 83 287 1.0 0.0 0.00 0.00 0.06 89 1012.3
20260903201545 82 294 0.0 0.0 0.00 0.00 0.06 90 1012.5
20260903200052 82 305 0.0 0.0 0.00 0.00 0.06 89 1012.7
20260903194546 83 265 4.0 0.0 0.00 0.00 0.06 85 1012.5
20260903193043 87 291 5.0 0.0 0.00 0.00 0.00 78 1013.0
20260903191543 89 288 8.0 0.0 0.00 0.00 0.00 70 1012.6
20260903190041 91 288 5.0 0.0 0.00 0.00 0.00 64 1012.8
20260903184544 91 269 3.0 0.0 0.00 0.00 0.00 69 1012.6
20260903183041 94 185 2.0 0.0 0.00 0.00 0.00 62 1012.9
20260903181540 94 310 3.0 0.0 0.00 0.00 0.00 60 1013.0
20260903180040 91 156 5.0 0.0 0.00 0.00 0.00 67 1012.7
20260903174539 91 90 4.0 0.0 0.00 0.00 0.00 66 1012.9
20260903173038 89 50 5.0 0.0 0.00 0.00 0.00 70 1013.2
20260903171537 94 61 3.0 0.0 0.00 0.00 0.00 60 1013.5
20260903170038 95 59 3.0 0.0 0.00 0.00 0.00 59 1013.5
20260903164543 94 9 3.0 0.0 0.00 0.00 0.00 58 1013.9
20260903163036 96 349 2.0 0.0 0.00 0.00 0.00 56 1014.1
20260903161535 95 209 2.0 0.0 0.00 0.00 0.00 58 1014.0
20260903160052 94 284 2.0 0.0 0.00 0.00 0.00 61 1014.2
20260903154528 92 311 2.0 0.0 0.00 0.00 0.00 66 1014.4
20260903153025 90 288 3.0 0.0 0.00 0.00 0.00 68 1014.5
20260903151529 90 336 3.0 0.0 0.00 0.00 0.00 70 1014.3
20260903150028 90 283 1.0 0.0 0.00 0.00 0.00 70 1014.3
20260903144522 90 65 2.0 0.0 0.00 0.00 0.00 71 1014.3
20260903143024 88 338 4.0 0.0 0.00 0.00 0.00 74 1014.3
20260903141517 87 9 4.0 0.0 0.00 0.00 0.00 76 1014.2
20260903140014 88 338 3.0 0.0 0.00 0.00 0.00 76 1014.3
20260903134511 87 304 3.0 0.0 0.00 0.00 0.00 80 1014.0
20260903133008 86 340 3.0 0.0 0.00 0.00 0.00 81 1013.8
20260903131506 85 9 2.0 0.0 0.00 0.00 0.00 82 1013.9
20260903130002 84 338 2.0 0.0 0.00 0.00 0.00 85 1013.9
20260903124601 82 309 1.0 0.0 0.00 0.00 0.00 89 1014.0
20260903123055 81 196 0.0 0.0 0.00 0.00 0.00 92 1014.0
20260903121552 80 130 0.0 0.0 0.00 0.00 0.00 94 1013.9
20260903114555 78 130 0.0 0.0 0.00 0.00 0.00 94 1013.5
20260903113049 78 130 0.0 0.0 0.00 0.00 0.00 94 1013.5
20260903111549 78 130 0.0 0.0 0.00 0.00 0.00 95 1013.3
20260903110048 77 130 0.0 0.0 0.00 0.00 0.00 94 1012.9
20260903104549 77 130 0.0 0.0 0.00 0.00 0.00 94 1012.7
20260903103047 77 130 0.0 0.0 0.00 0.00 0.00 94 1012.5
20260903101550 78 130 0.0 0.0 0.00 0.00 0.00 94 1012.6
20260903100046 78 130 0.0 0.0 0.00 0.00 0.00 94 1012.4
20260903094546 78 130 0.0 0.0 0.00 0.00 0.00 94 1012.3
20260903093106 78 130 0.0 0.0 0.00 0.00 0.00 94 1012.3
20260903091545 78 130 0.0 0.0 0.00 0.00 0.00 93 1012.3
20260903090044 78 130 0.0 0.0 0.00 0.00 0.00 93 1012.3
20260903084544 78 130 0.0 0.0 0.00 0.00 0.00 93 1012.1
20260903083043 78 149 0.0 0.0 0.00 0.00 0.00 93 1012.2
20260903081544 78 150 0.0 0.0 0.00 0.00 0.00 92 1012.3
20260903080042 78 230 0.0 0.0 0.00 0.00 0.00 91 1012.2
20260903074557 79 264 0.0 0.0 0.00 0.00 0.00 90 1012.1
20260903073045 78 332 0.0 0.0 0.00 0.00 0.00 92 1012.2
20260903071538 78 229 1.0 0.0 0.00 0.00 0.00 92 1012.1
20260903070037 78 321 0.0 0.0 0.00 0.00 0.00 93 1012.3
20260903064541 78 284 1.0 0.0 0.00 0.00 0.00 93 1012.6
20260903063036 78 288 1.0 0.0 0.00 0.00 0.00 93 1012.3
20260903061542 77 288 1.0 0.0 0.00 0.00 0.00 93 1012.8
20260903060033 77 283 1.0 0.0 0.00 0.00 0.00 93 1012.9
20260903054530 77 278 1.0 0.0 0.00 0.00 0.00 94 1013.1
20260903053027 77 263 1.0 0.0 0.00 0.00 0.00 93 1013.6
20260903051528 77 271 1.0 0.0 0.00 0.00 0.00 93 1013.6
20260903050030 77 229 0.0 0.0 0.00 0.00 0.00 93 1013.9